TimeCST,TemperatureF,Dew PointF,Humidity,Sea Level PressureIn,VisibilityMPH,Wind Direction,Wind SpeedMPH,Gust SpeedMPH,PrecipitationIn,Events,Conditions,WindDirDegrees,DateUTC
12:53 AM,35.1,24.1,64,30.14,10.0,SSE,8.1,-,N/A,,Clear,160,2013-01-08 06:53:00
1:53 AM,33.1,23.0,66,30.14,10.0,SSE,8.1,-,N/A,,Clear,150,2013-01-08 07:53:00
2:53 AM,34.0,23.0,64,30.16,10.0,SSE,4.6,-,N/A,,Clear,150,2013-01-08 08:53:00
3:53 AM,33.1,23.0,66,30.14,10.0,SE,8.1,-,N/A,,Clear,140,2013-01-08 09:53:00
4:53 AM,33.1,21.9,64,30.14,10.0,South,6.9,-,N/A,,Clear,180,2013-01-08 10:53:00
5:53 AM,30.9,21.9,69,30.16,10.0,SE,6.9,-,N/A,,Clear,130,2013-01-08 11:53:00
6:53 AM,30.0,23.0,75,30.17,10.0,SE,5.8,-,N/A,,Scattered Clouds,140,2013-01-08 12:53:00
7:53 AM,30.9,24.1,76,30.17,10.0,ESE,6.9,-,N/A,,Partly Cloudy,120,2013-01-08 13:53:00
8:53 AM,36.0,26.1,67,30.19,10.0,SE,9.2,-,N/A,,Mostly Cloudy,140,2013-01-08 14:53:00
9:53 AM,41.0,28.0,60,30.19,10.0,SE,9.2,-,N/A,,Mostly Cloudy,140,2013-01-08 15:53:00
10:53 AM,46.9,28.9,50,30.17,10.0,SSE,12.7,-,N/A,,Overcast,160,2013-01-08 16:53:00
11:53 AM,48.0,28.0,46,30.14,10.0,SSE,9.2,-,N/A,,Scattered Clouds,150,2013-01-08 17:53:00
12:53 PM,54.0,33.1,45,30.10,10.0,SSE,11.5,-,N/A,,Scattered Clouds,150,2013-01-08 18:53:00
1:53 PM,57.0,37.0,47,30.09,10.0,SSE,10.4,-,N/A,,Mostly Cloudy,150,2013-01-08 19:53:00
2:53 PM,55.0,39.0,55,30.10,10.0,South,15.0,19.6,N/A,,Mostly Cloudy,180,2013-01-08 20:53:00
3:53 PM,54.0,39.0,57,30.12,10.0,South,11.5,-,N/A,,Mostly Cloudy,180,2013-01-08 21:53:00
4:09 PM,53.6,39.2,58,30.11,10.0,SSE,13.8,-,N/A,,Overcast,160,2013-01-08 22:09:00
4:53 PM,53.1,39.0,59,30.13,10.0,SSE,9.2,-,N/A,,Overcast,160,2013-01-08 22:53:00
5:53 PM,50.0,41.0,71,30.12,10.0,SE,8.1,-,0.00,Rain,Light Rain,130,2013-01-08 23:53:00
6:39 PM,50.0,41.0,71,30.11,10.0,SE,6.9,-,0.00,,Overcast,140,2013-01-09 00:39:00
6:48 PM,50.0,41.0,71,30.11,10.0,SE,6.9,-,0.00,,Overcast,140,2013-01-09 00:48:00
6:53 PM,50.0,41.0,71,30.13,10.0,SE,6.9,-,0.00,,Overcast,140,2013-01-09 00:53:00
7:46 PM,50.0,37.4,62,30.14,10.0,SE,8.1,-,N/A,,Overcast,140,2013-01-09 01:46:00
7:53 PM,50.0,37.9,63,30.16,10.0,SE,9.2,-,N/A,,Overcast,140,2013-01-09 01:53:00
8:41 PM,46.4,39.2,76,30.14,10.0,ESE,5.8,-,0.00,Rain,Light Rain,120,2013-01-09 02:41:00
8:53 PM,46.9,39.0,74,30.16,10.0,ESE,8.1,-,0.00,Rain,Light Rain,110,2013-01-09 02:53:00
9:25 PM,46.4,39.2,76,30.16,10.0,Calm,Calm,-,0.00,,Overcast,0,2013-01-09 03:25:00
9:53 PM,46.4,39.2,76,30.15,10.0,ENE,3.5,-,N/A,,Overcast,60,2013-01-09 03:53:00
10:53 PM,46.4,39.2,76,30.18,10.0,Calm,Calm,-,N/A,,Overcast,0,2013-01-09 04:53:00
11:41 PM,46.4,39.2,76,30.20,10.0,Calm,Calm,-,0.01,Rain,Light Rain,0,2013-01-09 05:41:00
11:53 PM,45.0,41.0,86,30.21,10.0,Calm,Calm,-,0.01,,Overcast,0,2013-01-09 05:53:00